Terug naar catalogus

QPS-SAR-9 SUSANOO-I

ActiefWetenschapVLEO
NORAD 63205·PAYLOAD·🇯🇵 Japan

Gelanceerd Mar 15, 2025 vanaf Rocket Lab Launch Complex 1

Loading…

Volgende Passages (komende 24 uur)

TLE

VersSource: Space-Track

Epoch: Sep 14, 2026, 14:24 UTC

1 63205U 25050A   26257.60051308  .00003725  00000-0  27955-3 0  9991
2 63205  42.0205 327.8679 0004949   2.6845 357.4008 15.03857587 82426

Volg QPS-SAR-9 SUSANOO-I in realtime met AllMySat

Download on the App Store